Temperature
5 5 5 5 5 5 5 5 5 4 4 4 4 4 4 4 4 4 4 4 4 4 4 4 4 4 4 4 4 4 4 4 3 3 3 3 3 3
5 5 5 5 4 4 4 4 4 4 4 4 4 4 4 4 4 4 4 4 4 4 4 4 4 4 3 3 3 3 3 3 3 3 3 3 3 3
4 4 4 4 4 4 4 4 4 4 3 3 3 3 3 3 3 3 3 3 3 3 3 3 3 3 3 3 3 3 2 2 2 2 2 2 2 2
4 4 4 4 4 4 3 3 3 3 3 3 3 3 3 3 3 3 3 2 2 3 3 2 2 2 2 2 2 2 2 2 2 2 2 2 2 2
3 3 3 3 3 3 3 3 3 3 2 2 2 2 2 2 2 2 2 2 2 2 2 2 2 2 2 2 2 2 2 1 1 1 1 1 1 1
3 3 3 3 3 3 3 2 2 2 2 2 2 2 2 1 1 2 1 1 1 1 1 1 1 1 1 1 1 1 1 1 0 0 0 0 1 1
2 2 2 2 2 2 2 2 2 1 1 1 1 1 1 1 1 1 1 1 1 1 0 0 0 0 0 0 0 -0 -0 -0 -0 -0 -0 -0 -0 -0
2 2 2 2 2 1 1 1 1 1 1 1 1 1 1 0 0 0 -0 -0 -1 -0 -0 -0 -0 -0 -0 -0 -1 -1 -1 -1 -1 -1 -1 -1 -1 -1
1 1 1 1 1 1 1 1 1 1 0 0 0 0 0 -0 -0 -0 -0 -1 -1 -1 -1 -1 -1 -1 -1 -1 -1 -1 -2 -2 -2 -1 -2 -1 -1 -1
1 1 1 1 0 0 0 0 0 0 -0 -0 -0 -0 -1 -1 -1 -1 -1 -1 -1 -1 -2 -2 -1 -1 -1 -2 -2 -2 -2 -2 -2 -2 -2 -2 -2 -2
0 0 0 0 0 -0 -0 -0 -1 -1 -1 -1 -1 -1 -1 -1 -2 -2 -2 -2 -2 -2 -2 -2 -2 -2 -2 -2 -3 -3 -3 -3 -3 -3 -3 -3 -3 -3
-0 -0 -0 -1 -1 -1 -1 -1 -1 -1 -1 -1 -1 -1 -2 -2 -2 -2 -2 -2 -3 -3 -3 -3 -3 -4 -4 -3 -3 -3 -3 -3 -3 -3 -3 -3 -3 -3
-1 -1 -1 -1 -1 -1 -2 -2 -2 -2 -2 -2 -2 -2 -2 -2 -2 -3 -3 -3 -3 -3 -4 -4 -4 -4 -4 -4 -4 -4 -4 -4 -4 -4 -4 -4 -4 -4
-1 -1 -1 -2 -2 -2 -2 -2 -2 -2 -2 -2 -2 -2 -3 -3 -3 -3 -3 -3 -4 -4 -4 -4 -4 -4 -5 -5 -5 -4 -4 -4 -4 -4 -5 -5 -4 -4
-2 -2 -2 -2 -2 -2 -2 -3 -3 -3 -3 -3 -3 -3 -3 -3 -3 -4 -4 -4 -4 -4 -4 -5 -5 -5 -5 -5 -5 -5 -5 -5 -5 -5 -5 -5 -5 -5
-2 -3 -3 -3 -3 -3 -3 -3 -3 -3 -3 -3 -4 -4 -4 -4 -4 -4 -4 -4 -4 -4 -5 -5 -5 -5 -5 -5 -5 -5 -5 -6 -5 -6 -5 -5 -5 -5
-3 -3 -3 -3 -3 -3 -4 -4 -4 -4 -4 -4 -4 -4 -4 -4 -4 -5 -5 -5 -5 -5 -5 -5 -6 -6 -6 -6 -6 -6 -6 -6 -6 -6 -6 -6 -6 -5
-4 -4 -4 -4 -4 -4 -4 -4 -4 -4 -4 -4 -4 -5 -5 -5 -5 -5 -5 -6 -6 -6 -6 -6 -6 -6 -6 -6 -6 -6 -6 -6 -6 -6 -6 -6 -6 -6
-4 -4 -4 -4 -4 -5 -5 -4 -4 -5 -5 -5 -5 -5 -5 -5 -6 -6 -6 -6 -6 -6 -6 -6 -6 -7 -7 -7 -7 -7 -7 -7 -7 -7 -7 -7 -6 -6
-4 -4 -4 -5 -5 -5 -5 -5 -5 -5 -5 -5 -5 -5 -5 -6 -6 -6 -6 -6 -6 -6 -7 -7 -7 -7 -7 -7 -7 -7 -7 -7 -7 -7 -7 -7 -7 -7
-5 -5 -5 -5 -5 -5 -5 -5 -5 -5 -5 -5 -5 -6 -6 -6 -6 -7 -7 -7 -7 -7 -7 -7 -7 -7 -8 -8 -7 -7 -7 -7 -7 -8 -7 -7 -7 -7
-5 -5 -5 -5 -5 -5 -5 -6 -6 -6 -6 -6 -6 -6 -6 -6 -7 -7 -7 -7 -7 -7 -7 -7 -7 -8 -8 -8 -8 -7 -7 -7 -7 -8 -8 -8 -8 -8
-5 -5 -5 -5 -5 -6 -6 -6 -6 -6 -6 -6 -6 -6 -6 -7 -7 -7 -7 -7 -7 -7 -8 -8 -8 -8 -8 -8 -8 -8 -8 -8 -8 -7 -7 -7 -8 -8
Wind_Speed
3 3 2 2 2 2 2 3 3 3 4 3 2 2 3 3 4 4 4 5 5 4 4 4 4 4 4 5 5 6 6 7 7 7 8 8 8 9
2 2 2 2 2 2 2 2 2 3 4 3 2 2 3 3 4 3 4 4 4 4 4 4 4 3 4 4 4 5 6 6 6 7 8 8 8 9
2 2 3 2 2 2 2 2 2 2 4 3 2 2 2 2 3 2 3 3 4 4 4 4 3 3 4 4 4 5 5 6 6 6 7 8 8 9
3 3 3 3 3 3 2 3 3 2 3 4 3 2 2 2 2 2 2 2 3 4 4 3 3 3 3 4 4 5 5 6 6 6 7 8 8 9
4 4 4 3 4 3 3 3 3 2 2 3 3 2 2 1 1 1 1 2 3 2 2 2 2 3 4 4 4 4 4 4 5 6 7 8 8 9
4 4 4 4 5 4 4 4 3 2 2 2 2 2 2 1 1 1 2 1 2 2 2 2 3 3 4 4 4 4 4 4 5 6 7 8 9 9
4 4 5 5 6 5 4 4 3 3 3 3 3 2 2 2 2 2 2 1 2 1 1 2 2 2 3 4 4 5 5 4 5 6 7 8 9 9
4 4 4 5 5 6 6 6 6 5 5 4 4 4 4 3 3 2 2 1 2 1 1 3 2 2 3 3 5 5 4 4 5 6 7 7 8 8
5 4 4 4 4 3 4 6 6 8 7 5 5 5 5 4 4 3 3 3 3 2 1 3 2 3 3 4 5 4 4 4 5 6 6 7 8 8
4 5 4 4 4 3 3 3 3 3 4 4 4 5 4 4 4 4 3 1 1 1 1 2 2 3 3 4 5 4 3 4 5 6 5 6 7 8
3 4 4 4 6 6 3 3 3 2 3 4 4 4 4 4 3 2 2 1 2 2 1 1 1 2 2 3 4 3 3 5 5 6 6 6 8 8
2 3 5 5 6 6 4 4 4 3 1 1 1 1 1 3 4 4 4 3 2 2 2 1 1 1 2 2 2 3 3 5 6 6 7 7 7 6
2 2 2 4 5 5 4 3 4 2 2 2 1 1 1 1 1 2 3 3 3 3 3 2 2 2 2 2 2 2 3 3 5 5 6 7 7 6
2 2 2 3 3 3 2 3 3 2 1 1 1 1 1 1 2 2 2 1 2 3 4 3 2 3 2 3 3 2 2 3 3 4 5 6 7 7
2 3 3 3 2 1 2 3 2 1 2 2 2 2 2 1 1 0 0 0 1 2 3 3 3 3 3 3 3 2 2 2 3 2 3 4 4 5
1 2 2 2 1 1 1 1 1 1 1 2 2 1 0 0 1 1 1 1 1 2 2 2 3 3 3 3 4 4 3 3 2 3 4 4 5 5
1 0 0 0 1 0 0 0 1 1 1 1 1 1 1 1 1 1 1 1 2 2 3 2 2 2 4 4 4 4 4 4 4 3 3 4 4 5
2 1 1 2 2 2 2 1 1 2 2 1 1 1 1 2 2 1 1 2 3 3 3 2 1 2 2 2 5 5 4 3 3 3 3 4 5 4
2 2 2 2 2 2 2 1 1 1 1 1 2 1 1 2 2 2 2 2 3 3 3 2 2 1 2 3 3 4 3 3 3 3 3 4 5 6
1 2 2 2 2 2 2 2 1 1 1 1 1 2 2 2 2 2 2 3 3 3 2 2 3 3 4 3 3 3 4 3 3 3 4 4 4 7
1 2 2 2 2 2 2 2 2 2 2 2 2 2 2 2 2 2 2 4 3 2 3 4 3 3 1 0 2 3 3 5 5 4 3 4 4 4
2 2 2 2 2 2 2 2 2 2 2 3 3 3 2 2 3 3 3 3 3 3 4 3 2 1 1 2 3 4 4 4 5 7 7 6 4 3
2 2 2 2 2 2 3 3 3 3 3 3 3 3 2 2 2 3 3 3 3 3 3 2 2 1 2 2 3 3 4 4 3 4 5 8 9 11
Wind_Direction
197 199 210 223 212 213 212 209 203 233 247 241 246 261 268 263 274 270 277 278 275 278 283 279 280 282 283 283 285 285 286 285 287 288 290 290 295 293
199 198 212 218 210 214 212 228 225 223 243 246 254 278 272 275 277 279 280 283 279 277 279 279 280 285 291 288 291 291 292 291 293 294 294 292 294 296
206 206 227 219 211 222 217 222 234 228 250 269 271 284 269 273 289 293 286 283 278 275 279 276 275 290 295 294 292 290 288 295 298 300 303 302 298 296
215 215 233 232 217 215 213 220 228 226 225 254 273 279 277 259 258 275 303 310 292 278 278 272 280 290 293 294 301 300 296 299 298 301 303 303 303 302
214 217 229 221 224 223 216 221 225 228 216 224 254 271 284 274 267 300 305 306 303 293 295 290 299 306 304 298 303 303 301 297 300 306 307 304 304 303
218 220 227 226 224 220 219 220 218 215 202 207 233 256 264 266 222 240 290 298 303 309 319 311 311 315 310 300 299 300 302 297 300 306 307 305 302 302
225 225 227 232 237 233 228 216 206 209 207 211 225 241 249 243 234 224 248 300 301 278 316 303 303 304 310 300 293 290 297 301 303 305 305 305 303 302
226 233 235 237 242 248 246 236 222 215 211 213 229 229 240 237 225 215 215 259 281 259 270 295 280 273 288 281 284 296 297 301 305 307 307 308 308 305
221 225 237 240 240 231 248 252 244 243 236 225 220 229 230 224 215 220 224 237 256 247 270 281 283 273 282 277 283 292 304 311 312 314 313 311 312 309
222 218 222 234 235 228 222 237 242 249 252 245 225 229 230 225 215 218 215 221 275 268 218 267 283 276 285 282 272 279 306 322 317 313 315 318 317 316
232 222 220 227 242 239 217 217 237 251 260 255 258 251 240 235 208 159 180 199 274 272 239 232 273 296 287 271 268 275 303 317 323 328 325 320 319 318
235 235 239 239 242 236 211 202 223 242 226 243 285 284 232 218 218 200 201 203 233 255 224 208 241 299 297 280 265 283 292 306 314 317 320 319 319 327
226 240 247 246 244 241 227 212 226 230 197 185 200 237 225 205 220 217 213 206 216 245 223 206 225 229 246 278 282 264 260 293 310 304 306 313 316 317
230 243 246 256 251 244 239 226 225 220 171 168 202 248 254 242 236 216 206 220 230 242 234 220 226 223 235 268 271 266 269 276 285 288 296 310 316 316
221 227 251 268 269 249 245 229 204 171 171 192 229 257 262 247 230 174 146 118 308 282 260 244 230 229 230 247 256 254 282 274 261 267 291 299 297 302
222 232 249 268 285 253 237 226 191 188 196 212 232 249 260 225 230 227 249 282 314 308 305 273 243 229 249 249 247 259 255 251 265 277 285 285 286 283
180 196 257 247 248 235 205 178 171 172 220 223 214 224 235 247 251 214 226 246 255 268 289 302 309 277 250 240 246 249 252 255 254 265 279 287 281 279
180 192 223 226 226 219 220 232 219 218 222 215 211 222 239 248 253 251 239 233 243 254 258 257 278 332 333 288 237 236 242 246 254 263 261 277 286 287
194 210 224 223 222 215 217 224 240 238 220 215 226 232 240 245 243 249 247 244 248 251 250 237 228 224 271 286 276 232 231 254 264 273 263 265 276 285
201 210 225 227 221 218 221 228 240 235 228 231 232 234 235 237 240 247 249 245 248 253 256 247 231 224 229 245 261 274 264 247 253 269 283 285 281 285
226 227 235 237 235 227 225 227 226 231 233 235 238 238 236 235 242 243 249 250 249 242 245 249 247 264 257 242 278 282 276 274 265 263 274 286 293 292
243 241 243 242 239 235 231 228 227 232 233 237 242 242 242 241 244 242 242 246 242 241 247 257 248 247 220 233 257 272 293 303 304 295 280 267 259 260
248 248 245 246 244 239 233 230 229 236 236 236 239 242 242 245 243 242 246 248 248 241 242 252 258 250 245 239 254 270 281 294 303 312 306 298 282 276
Height
1494 1495 1496 1497 1498 1499 1499 1500 1500 1498 1497 1498 1499 1500 1500 1500 1500 1500 1500 1499 1499 1499 1499 1498 1498 1497 1497 1497 1497 1496 1496 1496 1495 1495 1494 1494 1493 1493
1490 1491 1492 1493 1494 1495 1495 1496 1496 1496 1494 1494 1495 1495 1496 1496 1496 1496 1496 1495 1495 1495 1495 1494 1494 1493 1493 1493 1493 1492 1492 1491 1491 1490 1489 1489 1489 1488
1486 1487 1488 1489 1490 1490 1491 1491 1492 1492 1491 1491 1491 1491 1491 1491 1491 1491 1491 1491 1491 1491 1490 1490 1490 1489 1489 1489 1488 1488 1487 1487 1486 1485 1485 1484 1484 1483
1481 1482 1483 1484 1485 1486 1486 1487 1487 1487 1487 1486 1486 1487 1487 1487 1487 1487 1487 1487 1487 1486 1486 1486 1485 1485 1485 1484 1484 1483 1483 1482 1481 1481 1480 1480 1479 1478
1477 1478 1478 1479 1479 1480 1481 1482 1482 1483 1483 1483 1482 1482 1482 1483 1482 1482 1483 1483 1483 1482 1482 1482 1481 1481 1480 1480 1479 1479 1478 1477 1477 1476 1475 1475 1474 1473
1473 1473 1474 1474 1475 1476 1476 1477 1478 1478 1478 1478 1477 1477 1478 1478 1478 1478 1478 1478 1478 1478 1478 1477 1477 1476 1476 1475 1475 1474 1474 1473 1473 1472 1471 1470 1470 1469
1468 1469 1469 1470 1471 1471 1472 1472 1473 1473 1473 1473 1473 1473 1473 1474 1474 1474 1474 1474 1474 1474 1473 1473 1472 1472 1471 1471 1471 1470 1469 1469 1468 1468 1467 1466 1465 1464
1464 1464 1465 1466 1466 1466 1467 1468 1468 1469 1468 1469 1468 1468 1468 1469 1469 1469 1469 1469 1469 1470 1468 1468 1468 1467 1467 1466 1466 1466 1465 1464 1464 1463 1462 1461 1460 1459
1459 1460 1460 1461 1461 1462 1462 1463 1463 1464 1465 1465 1464 1463 1464 1464 1465 1465 1465 1464 1464 1464 1464 1462 1463 1462 1462 1462 1462 1462 1461 1460 1460 1459 1458 1457 1456 1455
1455 1456 1456 1456 1457 1457 1457 1458 1458 1459 1459 1459 1460 1459 1460 1461 1461 1461 1460 1460 1460 1460 1460 1458 1457 1457 1457 1457 1457 1457 1457 1456 1455 1454 1453 1452 1452 1451
1451 1451 1452 1452 1452 1453 1453 1453 1453 1454 1455 1455 1455 1455 1456 1456 1456 1456 1456 1455 1454 1455 1455 1455 1453 1453 1452 1452 1453 1453 1452 1452 1451 1450 1449 1448 1448 1446
1446 1447 1447 1448 1448 1449 1449 1449 1449 1449 1450 1450 1450 1451 1451 1451 1452 1452 1452 1451 1450 1450 1450 1450 1449 1449 1448 1447 1448 1448 1448 1447 1447 1446 1445 1444 1443 1442
1442 1442 1443 1444 1444 1445 1445 1445 1445 1446 1446 1446 1446 1446 1446 1447 1447 1447 1447 1447 1446 1446 1446 1446 1445 1445 1445 1443 1443 1443 1443 1443 1442 1441 1441 1440 1439 1438
1439 1439 1440 1440 1441 1441 1441 1441 1441 1442 1442 1442 1442 1442 1442 1442 1442 1442 1442 1442 1442 1442 1442 1442 1441 1441 1440 1438 1438 1438 1438 1438 1437 1437 1437 1436 1435 1434
1435 1436 1436 1437 1437 1437 1437 1437 1438 1438 1438 1438 1438 1438 1438 1438 1438 1438 1438 1438 1438 1438 1438 1438 1437 1437 1436 1435 1434 1433 1433 1433 1433 1433 1432 1431 1430 1430
1432 1433 1433 1434 1434 1434 1434 1434 1434 1434 1435 1435 1434 1435 1434 1434 1434 1434 1434 1434 1434 1433 1434 1434 1433 1433 1432 1432 1431 1430 1429 1429 1429 1428 1427 1427 1426 1425
1429 1430 1430 1430 1430 1430 1430 1431 1431 1431 1431 1431 1431 1430 1430 1430 1430 1430 1430 1430 1429 1429 1429 1429 1429 1429 1429 1428 1427 1426 1426 1426 1425 1424 1423 1422 1422 1421
1426 1426 1426 1426 1426 1427 1427 1427 1428 1428 1428 1428 1427 1427 1427 1427 1426 1426 1426 1426 1425 1425 1425 1425 1425 1425 1425 1424 1424 1423 1422 1422 1421 1421 1420 1418 1417 1417
1423 1423 1423 1423 1424 1424 1424 1424 1424 1424 1424 1424 1424 1424 1424 1423 1423 1422 1422 1422 1421 1421 1421 1421 1421 1421 1420 1419 1419 1420 1419 1418 1417 1417 1416 1415 1413 1413
1419 1420 1420 1420 1421 1421 1421 1421 1421 1421 1421 1421 1421 1421 1420 1420 1419 1419 1418 1418 1417 1417 1417 1417 1418 1417 1417 1417 1415 1415 1415 1414 1413 1412 1412 1411 1410 1409
1416 1417 1417 1417 1418 1418 1418 1418 1418 1418 1418 1418 1417 1417 1417 1416 1416 1415 1415 1414 1414 1414 1414 1414 1414 1415 1414 1414 1412 1410 1411 1411 1410 1410 1408 1407 1405 1404
1414 1414 1414 1414 1415 1415 1415 1415 1415 1415 1415 1414 1414 1414 1414 1413 1412 1412 1411 1411 1411 1411 1411 1411 1411 1411 1410 1410 1408 1407 1407 1407 1407 1407 1406 1405 1403 1401
1411 1411 1411 1411 1412 1412 1412 1412 1412 1412 1412 1411 1411 1411 1410 1410 1409 1409 1408 1408 1408 1408 1408 1408 1407 1407 1407 1406 1406 1405 1404 1403 1403 1402 1402 1401 1400 1399